STARLINK-2579 (48459 NORAD) Tracking and Keplerian Element Data

This shows tracking and keplerian element data for the satellite.

Feedback or suggestion? Click here.




ElementValue
Catalog48459
NameSTARLINK-2579
Epoch Orbit1403
Epoch Day215.25002315
Epoch Year2021
RAAN165.9054
Inclination53.0535
Eccentricity0.0001837
Argument of Perigee66.9387
Mean Anonmoly53.3162
Mean Motion15.06374848
Decay Rate0.00023657
L11 48459U 21040AH 21215.25002315 .00023657 00000-0 16028-2 0 9998
L22 48459 53.0535 165.9054 0001837 66.9387 53.3162 15.06374848 14035

Live tracking and technical data element details for STARLINK-2579 (NORAD 48459). STARLINK-2579 can be tracked NOW for your location showing map with azimuth and elevation plus other details from your city location.

Track the satellite on the map from your city or location and see movement details for azimuth, elevation, latitude, longitude, range, height, and movement on the map or in text.







IsCatalogInMostPopularTable: catalog: 48459, numindb: 26
Update: records affected: 1



GetName: 48459 STARLINK-2579

Hit Count: updated at: Tue, 03 Aug 2021 20:53:07 GMT